• En Colombia
  • Lista de países
  • Para 7 días
  • Temperatura del agua
  • El tiempo en el mapa
  • Informadores
  • user-avatar
    Iniciar sesión

    Tiempo cada hora Canberra

    Hoy, 21 Enero, Martes

    Tiempo Temperatura Precipitaciones Viento Presión Humedad
    00:00 +15°C° 0 mm 2 mps 701 mmHg 76%
    01:00 +15°C° 0 mm 2 mps 701 mmHg 77%
    02:00 +14°C° 0 mm 2 mps 701 mmHg 80%
    03:00 +14°C° 0 mm 2 mps 701 mmHg 84%
    04:00 +14°C° 0 mm 2 mps 701 mmHg 89%
    05:00 +15°C° 0 mm 2 mps 702 mmHg 86%
    06:00 +16°C° 0 mm 2 mps 702 mmHg 83%
    07:00 +17°C° 0 mm 3 mps 703 mmHg 80%
    08:00 +19°C° 0 mm 3 mps 704 mmHg 71%
    09:00 +21°C° 0 mm 3 mps 704 mmHg 62%
    10:00 +23°C° 0 mm 4 mps 705 mmHg 52%
    11:00 +25°C° 0 mm 4 mps 705 mmHg 48%
    12:00 +26°C° 0 mm 4 mps 705 mmHg 44%
    13:00 +27°C° 0 mm 4 mps 705 mmHg 41%
    14:00 +27°C° 0 mm 4 mps 704 mmHg 41%
    15:00 +27°C° 0 mm 5 mps 704 mmHg 41%
    16:00 +27°C° 0 mm 5 mps 704 mmHg 41%
    17:00 +26°C° 0 mm 4 mps 704 mmHg 46%
    18:00 +24°C° 0 mm 3 mps 705 mmHg 51%
    19:00 +22°C° 0 mm 3 mps 705 mmHg 55%
    20:00 +21°C° 0 mm 2 mps 705 mmHg 61%
    21:00 +20°C° 0 mm 1 mps 705 mmHg 67%
    22:00 +19°C° 0 mm 1 mps 705 mmHg 73%
    23:00 +18°C° 0 mm 1 mps 705 mmHg 77%

    Mañana, 22 Enero, Miércoles

    Tiempo Temperatura Precipitaciones Viento Presión Humedad
    00:00 +15°C° 0 mm 0 mps 705 mmHg 81%
    01:00 +15°C° 0 mm 0 mps 705 mmHg 86%
    02:00 +14°C° 0 mm 0 mps 705 mmHg 86%
    03:00 +14°C° 0 mm 0 mps 704 mmHg 87%
    04:00 +14°C° 0 mm 0 mps 704 mmHg 87%
    05:00 +15°C° 0 mm 0 mps 705 mmHg 79%
    06:00 +19°C° 0 mm 1 mps 705 mmHg 72%
    07:00 +20°C° 0 mm 1 mps 706 mmHg 64%
    08:00 +23°C° 0 mm 2 mps 706 mmHg 53%
    09:00 +25°C° 0 mm 3 mps 706 mmHg 43%
    10:00 +28°C° 0 mm 5 mps 706 mmHg 32%
    11:00 +29°C° 0 mm 5 mps 705 mmHg 29%
    12:00 +32°C° 0 mm 5 mps 705 mmHg 26%
    13:00 +33°C° 0 mm 6 mps 704 mmHg 23%
    14:00 +33°C° 0 mm 6 mps 704 mmHg 22%
    15:00 +34°C° 0 mm 6 mps 703 mmHg 21%
    16:00 +34°C° 0 mm 6 mps 702 mmHg 20%
    17:00 +32°C° 0 mm 5 mps 702 mmHg 22%
    18:00 +30°C° 0 mm 4 mps 702 mmHg 25%
    19:00 +28°C° 0 mm 3 mps 702 mmHg 27%
    20:00 +27°C° 0 mm 3 mps 702 mmHg 28%
    21:00 +26°C° 0 mm 2 mps 702 mmHg 29%
    22:00 +24°C° 0 mm 2 mps 701 mmHg 30%
    23:00 +24°C° 0 mm 3 mps 701 mmHg 30%

    Pasado mañana, 23 Enero, Jueves

    Tiempo Temperatura Precipitaciones Viento Presión Humedad
    00:00 +24°C° 0 mm 3 mps 701 mmHg 29%
    01:00 +24°C° 0 mm 3 mps 700 mmHg 29%
    02:00 +24°C° 0 mm 3 mps 699 mmHg 28%
    03:00 +24°C° 0 mm 3 mps 699 mmHg 27%
    04:00 +24°C° 0 mm 3 mps 698 mmHg 25%
    05:00 +25°C° 0 mm 4 mps 699 mmHg 24%
    06:00 +26°C° 0 mm 5 mps 699 mmHg 23%
    07:00 +27°C° 0 mm 6 mps 699 mmHg 22%
    08:00 +29°C° 0 mm 8 mps 700 mmHg 21%
    09:00 +32°C° 0 mm 10 mps 700 mmHg 20%
    10:00 +34°C° 0 mm 12 mps 701 mmHg 19%
    11:00 +33°C° 0 mm 12 mps 700 mmHg 24%
    12:00 +31°C° 0 mm 11 mps 700 mmHg 30%
    13:00 +29°C° 0 mm 10 mps 700 mmHg 35%
    14:00 +29°C° 0 mm 10 mps 700 mmHg 36%
    15:00 +29°C° 0 mm 10 mps 700 mmHg 36%
    16:00 +29°C° 0 mm 9 mps 700 mmHg 36%
    17:00 +27°C° 0 mm 8 mps 700 mmHg 38%
    18:00 +24°C° 0 mm 6 mps 701 mmHg 41%
    19:00 +22°C° 0 mm 5 mps 701 mmHg 43%
    20:00 +20°C° 0 mm 4 mps 702 mmHg 46%
    21:00 +19°C° 0 mm 3 mps 702 mmHg 50%
    22:00 +18°C° 0 mm 2 mps 703 mmHg 53%
    23:00 +18°C° 0 mm 1 mps 703 mmHg 55%

    24 Enero, Viernes

    Tiempo Temperatura Precipitaciones Viento Presión Humedad
    00:00 +18°C° 0 mm 1 mps 703 mmHg 58%
    01:00 +16°C° 0 mm 1 mps 703 mmHg 60%
    02:00 +16°C° 0 mm 1 mps 703 mmHg 62%
    03:00 +15°C° 0 mm 1 mps 703 mmHg 64%
    04:00 +15°C° 0 mm 1 mps 703 mmHg 66%
    05:00 +16°C° 0 mm 1 mps 703 mmHg 61%
    06:00 +17°C° 0 mm 2 mps 704 mmHg 56%
    07:00 +18°C° 0 mm 2 mps 704 mmHg 51%
    08:00 +20°C° 0 mm 4 mps 705 mmHg 44%
    09:00 +22°C° 0 mm 5 mps 705 mmHg 37%
    10:00 +24°C° 0 mm 6 mps 706 mmHg 30%
    11:00 +26°C° 0 mm 6 mps 706 mmHg 26%
    12:00 +27°C° 0 mm 6 mps 705 mmHg 22%
    13:00 +28°C° 0 mm 6 mps 705 mmHg 19%
    14:00 +28°C° 0 mm 5 mps 705 mmHg 19%
    15:00 +29°C° 0 mm 5 mps 705 mmHg 19%
    16:00 +29°C° 0 mm 5 mps 704 mmHg 19%
    17:00 +27°C° 0 mm 4 mps 705 mmHg 25%
    18:00 +25°C° 0 mm 3 mps 706 mmHg 30%
    19:00 +23°C° 0 mm 2 mps 706 mmHg 36%
    20:00 +20°C° 0 mm 2 mps 706 mmHg 52%
    21:00 +19°C° 0 mm 2 mps 707 mmHg 69%
    22:00 +17°C° 0 mm 2 mps 707 mmHg 85%
    23:00 +17°C° 0 mm 2 mps 707 mmHg 88%

    25 Enero, Sábado

    Tiempo Temperatura Precipitaciones Viento Presión Humedad
    00:00 +17°C° 0 mm 2 mps 707 mmHg 90%
    01:00 +18°C° 0 mm 1 mps 707 mmHg 92%
    02:00 +16°C° 0 mm 1 mps 707 mmHg 93%
    03:00 +16°C° 0 mm 1 mps 707 mmHg 93%
    04:00 +15°C° 0 mm 0 mps 706 mmHg 94%
    05:00 +15°C° 0 mm 0 mps 707 mmHg 90%
    06:00 +18°C° 0 mm 1 mps 707 mmHg 85%
    07:00 +19°C° 0 mm 1 mps 708 mmHg 81%
    08:00 +22°C° 0 mm 1 mps 708 mmHg 66%
    09:00 +25°C° 0 mm 1 mps 708 mmHg 51%
    10:00 +28°C° 0 mm 1 mps 708 mmHg 37%
    11:00 +29°C° 0 mm 2 mps 708 mmHg 31%
    12:00 +30°C° 0 mm 2 mps 708 mmHg 26%
    13:00 +33°C° 0 mm 3 mps 708 mmHg 20%
    14:00 +33°C° 0 mm 3 mps 707 mmHg 19%
    15:00 +33°C° 0 mm 3 mps 707 mmHg 19%
    16:00 +33°C° 0 mm 3 mps 707 mmHg 18%
    17:00 +30°C° 0 mm 3 mps 707 mmHg 30%
    18:00 +27°C° 0 mm 3 mps 707 mmHg 42%
    19:00 +25°C° 0 mm 3 mps 707 mmHg 54%
    20:00 +22°C° 0 mm 3 mps 707 mmHg 67%
    21:00 +21°C° 0 mm 2 mps 707 mmHg 79%
    22:00 +20°C° 0 mm 2 mps 707 mmHg 91%
    23:00 +20°C° 0 mm 2 mps 707 mmHg 90%

    26 Enero, Domingo

    Tiempo Temperatura Precipitaciones Viento Presión Humedad
    00:00 +21°C° 0 mm 1 mps 707 mmHg 89%
    01:00 +22°C° 0 mm 1 mps 707 mmHg 88%
    02:00 +21°C° 0 mm 1 mps 707 mmHg 90%
    03:00 +20°C° 0 mm 1 mps 706 mmHg 93%
    04:00 +18°C° 0 mm 0 mps 706 mmHg 96%
    05:00 +19°C° 0 mm 0 mps 707 mmHg 92%
    06:00 +19°C° 0 mm 0 mps 707 mmHg 88%
    07:00 +20°C° 0 mm 0 mps 707 mmHg 84%
    08:00 +25°C° 0 mm 1 mps 707 mmHg 66%
    09:00 +28°C° 0 mm 2 mps 708 mmHg 47%
    10:00 +31°C° 0 mm 3 mps 708 mmHg 28%
    11:00 +33°C° 0 mm 4 mps 707 mmHg 24%
    12:00 +34°C° 0 mm 4 mps 707 mmHg 20%
    13:00 +35°C° 0 mm 5 mps 706 mmHg 16%
    14:00 +36°C° 0 mm 5 mps 706 mmHg 16%
    15:00 +36°C° 0 mm 4 mps 706 mmHg 16%
    16:00 +36°C° 0 mm 4 mps 705 mmHg 15%
    17:00 +34°C° 0 mm 3 mps 705 mmHg 19%
    18:00 +30°C° 0 mm 2 mps 705 mmHg 22%
    19:00 +28°C° 0 mm 2 mps 705 mmHg 26%
    20:00 +26°C° 0 mm 2 mps 706 mmHg 43%
    21:00 +24°C° 0 mm 2 mps 706 mmHg 61%
    22:00 +21°C° 0 mm 2 mps 706 mmHg 78%
    23:00 +20°C° 0 mm 2 mps 706 mmHg 82%
    Mostrar más